Location: Pasadena, ca
(34.1243°N, 118.1037°W)
Time: 06:48:02
(UTC-07:00)

OTV 5 (USA 277) - Pass Details

Date: 09 October 2017
Orbit: 404 x 417 km, 43.0° (Epoch: 07 September)

Event Time Altitude Azimuth Distance (km) Brightness Sun altitude
Rises 20:39:32 0° 269° (W) 2,349 ? -28.5°
Reaches altitude 10° 20:41:50 10° 281° (WNW) 1,487 ? -28.9°
Enters shadow 20:42:53 17° 294° (WNW) 1,146 ? -29.1°
